• In Deutschland
  • Länderverzeichnis
  • Für 7 Tage
  • Wassertemperatur
  • Satellitenkarten
  • Wetterkarte
  • Widgets
  • user-avatar
    Anmelden

    Stündliche Wetter Armawir

    Heute, 26 Juni, Montag

    Zeit Temperatur Niederschläge Wind Luftdruck Luftfeuchtigkeit
    00:00 +19°C° 0,1 mm 2 m/S 688 mmHg 69%
    01:00 +19°C° 0 mm 2 m/S 688 mmHg 71%
    02:00 +19°C° 0 mm 1 m/S 688 mmHg 72%
    03:00 +18°C° 0 mm 2 m/S 687 mmHg 75%
    04:00 +20°C° 0 mm 1 m/S 688 mmHg 72%
    05:00 +21°C° 0 mm 1 m/S 688 mmHg 69%
    06:00 +22°C° 0 mm 1 m/S 688 mmHg 66%
    07:00 +24°C° 0 mm 1 m/S 689 mmHg 58%
    08:00 +26°C° 0 mm 1 m/S 689 mmHg 49%
    09:00 +29°C° 0 mm 1 m/S 689 mmHg 40%
    10:00 +30°C° 0 mm 2 m/S 689 mmHg 37%
    11:00 +32°C° 0 mm 2 m/S 689 mmHg 33%
    12:00 +34°C° 0 mm 2 m/S 689 mmHg 30%
    13:00 +34°C° 0 mm 2 m/S 689 mmHg 29%
    14:00 +35°C° 0 mm 2 m/S 688 mmHg 28%
    15:00 +35°C° 0 mm 2 m/S 688 mmHg 29%
    16:00 +34°C° 0 mm 2 m/S 688 mmHg 31%
    17:00 +32°C° 0 mm 2 m/S 688 mmHg 34%
    18:00 +32°C° 0 mm 2 m/S 688 mmHg 36%
    19:00 +29°C° 0,1 mm 2 m/S 688 mmHg 44%
    20:00 +27°C° 0,1 mm 2 m/S 688 mmHg 52%
    21:00 +24°C° 0,1 mm 2 m/S 688 mmHg 61%
    22:00 +23°C° 0 mm 2 m/S 688 mmHg 65%
    23:00 +21°C° 0 mm 2 m/S 688 mmHg 69%

    Morgen, 27 Juni, Dienstag

    Zeit Temperatur Niederschläge Wind Luftdruck Luftfeuchtigkeit
    00:00 +21°C° 0 mm 2 m/S 689 mmHg 73%
    01:00 +21°C° 0 mm 1 m/S 689 mmHg 75%
    02:00 +21°C° 0 mm 1 m/S 688 mmHg 76%
    03:00 +20°C° 0 mm 1 m/S 688 mmHg 78%
    04:00 +21°C° 0 mm 1 m/S 689 mmHg 75%
    05:00 +22°C° 0 mm 1 m/S 689 mmHg 71%
    06:00 +23°C° 0 mm 1 m/S 689 mmHg 68%
    07:00 +25°C° 0 mm 1 m/S 689 mmHg 59%
    08:00 +28°C° 0 mm 2 m/S 689 mmHg 50%
    09:00 +30°C° 0 mm 2 m/S 689 mmHg 41%
    10:00 +32°C° 0 mm 2 m/S 689 mmHg 36%
    11:00 +34°C° 0 mm 2 m/S 688 mmHg 32%
    12:00 +36°C° 0 mm 2 m/S 688 mmHg 28%
    13:00 +37°C° 0 mm 2 m/S 688 mmHg 26%
    14:00 +37°C° 0 mm 2 m/S 688 mmHg 25%
    15:00 +38°C° 0 mm 2 m/S 687 mmHg 24%
    16:00 +37°C° 0 mm 2 m/S 687 mmHg 27%
    17:00 +36°C° 0 mm 2 m/S 687 mmHg 30%
    18:00 +36°C° 0 mm 2 m/S 687 mmHg 33%
    19:00 +32°C° 0,1 mm 2 m/S 686 mmHg 39%
    20:00 +29°C° 0,1 mm 2 m/S 686 mmHg 46%
    21:00 +26°C° 0,1 mm 2 m/S 686 mmHg 53%
    22:00 +25°C° 0 mm 2 m/S 686 mmHg 57%
    23:00 +25°C° 0 mm 2 m/S 686 mmHg 61%

    übermorgen, 28 Juni, Mittwoch

    Zeit Temperatur Niederschläge Wind Luftdruck Luftfeuchtigkeit
    00:00 +24°C° 0 mm 2 m/S 686 mmHg 65%
    01:00 +24°C° 0 mm 2 m/S 686 mmHg 66%
    02:00 +23°C° 0 mm 2 m/S 686 mmHg 68%
    03:00 +23°C° 0 mm 2 m/S 686 mmHg 69%
    04:00 +24°C° 0 mm 2 m/S 686 mmHg 67%
    05:00 +24°C° 0 mm 2 m/S 686 mmHg 65%
    06:00 +25°C° 0 mm 1 m/S 686 mmHg 63%
    07:00 +27°C° 0 mm 1 m/S 687 mmHg 54%
    08:00 +30°C° 0 mm 1 m/S 687 mmHg 45%
    09:00 +33°C° 0 mm 1 m/S 687 mmHg 37%
    10:00 +34°C° 0 mm 1 m/S 687 mmHg 32%
    11:00 +36°C° 0 mm 1 m/S 687 mmHg 27%
    12:00 +37°C° 0 mm 1 m/S 687 mmHg 23%
    13:00 +39°C° 0 mm 1 m/S 686 mmHg 22%
    14:00 +39°C° 0 mm 1 m/S 686 mmHg 21%
    15:00 +40°C° 0 mm 1 m/S 685 mmHg 20%
    16:00 +38°C° 0,1 mm 2 m/S 685 mmHg 24%
    17:00 +37°C° 0,1 mm 2 m/S 685 mmHg 27%
    18:00 +36°C° 0,1 mm 3 m/S 685 mmHg 31%
    19:00 +34°C° 0,1 mm 3 m/S 685 mmHg 39%
    20:00 +30°C° 0,1 mm 3 m/S 685 mmHg 46%
    21:00 +27°C° 0,1 mm 3 m/S 685 mmHg 54%
    22:00 +26°C° 0,1 mm 3 m/S 685 mmHg 57%
    23:00 +25°C° 0,1 mm 2 m/S 685 mmHg 60%

    29 Juni, Donnerstag

    Zeit Temperatur Niederschläge Wind Luftdruck Luftfeuchtigkeit
    00:00 +24°C° 0,1 mm 2 m/S 685 mmHg 64%
    01:00 +24°C° 0,1 mm 2 m/S 685 mmHg 65%
    02:00 +23°C° 0,1 mm 2 m/S 685 mmHg 67%
    03:00 +23°C° 0,1 mm 2 m/S 685 mmHg 69%
    04:00 +23°C° 0,1 mm 2 m/S 685 mmHg 67%
    05:00 +24°C° 0,1 mm 2 m/S 686 mmHg 66%
    06:00 +25°C° 0,1 mm 2 m/S 686 mmHg 64%
    07:00 +27°C° 0,1 mm 1 m/S 686 mmHg 56%
    08:00 +29°C° 0,1 mm 1 m/S 686 mmHg 49%
    09:00 +31°C° 0,1 mm 1 m/S 686 mmHg 41%
    10:00 +33°C° 0,1 mm 1 m/S 686 mmHg 36%
    11:00 +35°C° 0,1 mm 1 m/S 686 mmHg 32%
    12:00 +36°C° 0,1 mm 1 m/S 686 mmHg 27%
    13:00 +36°C° 0,3 mm 1 m/S 686 mmHg 27%
    14:00 +37°C° 0,3 mm 1 m/S 685 mmHg 27%
    15:00 +37°C° 0,3 mm 1 m/S 685 mmHg 26%
    16:00 +37°C° 0,4 mm 2 m/S 685 mmHg 30%
    17:00 +36°C° 0,4 mm 2 m/S 685 mmHg 33%
    18:00 +35°C° 0,4 mm 3 m/S 685 mmHg 36%
    19:00 +31°C° 0,4 mm 3 m/S 685 mmHg 44%
    20:00 +28°C° 0,4 mm 3 m/S 685 mmHg 51%
    21:00 +26°C° 0,4 mm 2 m/S 685 mmHg 59%
    22:00 +25°C° 0,4 mm 2 m/S 685 mmHg 62%
    23:00 +24°C° 0,4 mm 2 m/S 685 mmHg 65%

    30 Juni, Freitag

    Zeit Temperatur Niederschläge Wind Luftdruck Luftfeuchtigkeit
    00:00 +23°C° 0,4 mm 2 m/S 685 mmHg 68%
    01:00 +23°C° 0,3 mm 2 m/S 685 mmHg 69%
    02:00 +21°C° 0,3 mm 2 m/S 685 mmHg 71%
    03:00 +21°C° 0,3 mm 2 m/S 685 mmHg 72%
    04:00 +21°C° 0,3 mm 2 m/S 685 mmHg 70%
    05:00 +23°C° 0,3 mm 2 m/S 686 mmHg 67%
    06:00 +23°C° 0,3 mm 2 m/S 686 mmHg 65%
    07:00 +25°C° 0,2 mm 2 m/S 686 mmHg 57%
    08:00 +27°C° 0,2 mm 2 m/S 686 mmHg 50%
    09:00 +29°C° 0,2 mm 2 m/S 686 mmHg 43%
    10:00 +30°C° 0,1 mm 2 m/S 686 mmHg 39%
    11:00 +32°C° 0,1 mm 2 m/S 686 mmHg 35%
    12:00 +35°C° 0,1 mm 2 m/S 686 mmHg 31%
    13:00 +35°C° 0,3 mm 2 m/S 685 mmHg 31%
    14:00 +35°C° 0,3 mm 2 m/S 685 mmHg 30%
    15:00 +35°C° 0,3 mm 2 m/S 685 mmHg 29%
    16:00 +34°C° 0,4 mm 3 m/S 685 mmHg 32%
    17:00 +34°C° 0,4 mm 4 m/S 685 mmHg 34%
    18:00 +33°C° 0,4 mm 4 m/S 685 mmHg 36%
    19:00 +29°C° 0,3 mm 4 m/S 686 mmHg 43%
    20:00 +27°C° 0,3 mm 3 m/S 686 mmHg 49%
    21:00 +24°C° 0,3 mm 2 m/S 686 mmHg 55%
    22:00 +24°C° 0,1 mm 2 m/S 686 mmHg 56%
    23:00 +23°C° 0,1 mm 2 m/S 687 mmHg 57%

    1 Juli, Samstag

    Zeit Temperatur Niederschläge Wind Luftdruck Luftfeuchtigkeit
    00:00 +21°C° 0,1 mm 2 m/S 687 mmHg 58%
    01:00 +21°C° 0,1 mm 2 m/S 687 mmHg 58%
    02:00 +20°C° 0,1 mm 2 m/S 687 mmHg 59%
    03:00 +20°C° 0,1 mm 2 m/S 687 mmHg 59%
    04:00 +20°C° 0 mm 2 m/S 687 mmHg 57%
    05:00 +21°C° 0 mm 2 m/S 687 mmHg 55%
    06:00 +21°C° 0 mm 2 m/S 688 mmHg 54%
    07:00 +24°C° 0 mm 2 m/S 688 mmHg 47%
    08:00 +26°C° 0 mm 2 m/S 688 mmHg 40%
    09:00 +29°C° 0 mm 2 m/S 688 mmHg 33%
    10:00 +30°C° 0 mm 2 m/S 688 mmHg 30%
    11:00 +32°C° 0 mm 2 m/S 688 mmHg 27%
    12:00 +34°C° 0 mm 2 m/S 688 mmHg 24%
    13:00 +35°C° 0 mm 2 m/S 688 mmHg 24%
    14:00 +35°C° 0 mm 2 m/S 688 mmHg 24%
    15:00 +36°C° 0 mm 2 m/S 687 mmHg 23%
    16:00 +35°C° 0,1 mm 3 m/S 687 mmHg 26%
    17:00 +34°C° 0,1 mm 3 m/S 687 mmHg 28%
    18:00 +33°C° 0,1 mm 3 m/S 687 mmHg 31%
    19:00 +29°C° 0,1 mm 3 m/S 688 mmHg 37%
    20:00 +27°C° 0,1 mm 3 m/S 688 mmHg 44%
    21:00 +24°C° 0,1 mm 2 m/S 688 mmHg 50%
    22:00 +23°C° 0,1 mm 2 m/S 688 mmHg 53%
    23:00 +23°C° 0,1 mm 2 m/S 688 mmHg 55%
    Mehr zeigen